This demonstration page uses our WeatherBlox Daily Observations layout. Learn more.

Left ArrowRight Arrow

39.12711, -84.51439

Hourly Observations for January 10, 2022

Temp ( °F °C ) Dew Point ( °F °C ) Humidity (%) Winds ( mph kmh ) Pressure ( in mb ) Visibility ( mi km ) Precip ( " mm )
12:53 am 00:53 Clear 25 -3.9 11 -11.7 55 55 NW 6 9 30.54 1034 10 16 0.00 0.00
1:53 am 01:53 Clear 24 -4.4 12 -11.1 60 60 WNW 8 13 30.53 1034 10 16 0.00 0.00
2:53 am 02:53 Clear 23 -5 9 -12.8 55 55 WNW 7 11 30.52 1034 10 16 0.00 0.00
3:53 am 03:53 Clear 21 -6.1 11 -11.7 65 65 W 8 13 30.53 1034 10 16 0.00 0.00
4:53 am 04:53 Clear 21 -6.1 9 -12.8 59 59 VRB 5 7 30.53 1034 10 16 0.00 0.00
5:53 am 05:53 Clear 20 -6.7 10 -12.2 65 65 WNW 5 7 30.52 1034 10 16 0.00 0.00
6:53 am 06:53 Clear 19 -7.2 9 -12.8 65 65 W 7 11 30.53 1034 10 16 0.00 0.00
7:53 am 07:53 Mostly Clear 19 -7.2 7 -13.9 59 59 W 6 9 30.53 1034 10 16 0.00 0.00
8:53 am 08:53 Partly Cloudy 20 -6.7 8 -13.3 60 60 NNW 5 7 30.55 1035 10 16 0.00 0.00
9:53 am 09:53 Cloudy 21 -6.1 9 -12.8 59 59 W 8 13 30.56 1035 10 16 0.00 0.00
10:53 am 10:53 Cloudy 24 -4.4 9 -12.8 52 52 W 6 9 30.55 1035 10 16 0.00 0.00
11:53 am 11:53 Cloudy 26 -3.3 11 -11.7 53 53 W 9 15 30.52 1034 10 16 0.00 0.00
12:53 pm 12:53 Cloudy 29 -1.7 11 -11.7 47 47 WNW 10 17 30.49 1032 10 16 0.00 0.00
1:53 pm 13:53 Mostly Cloudy 30 -1.1 11 -11.7 45 45 W 14 22 30.46 1031 10 16 0.00 0.00
2:53 pm 14:53 Sunny 32 0 10 -12.2 40 40 W 9 15 30.43 1031 10 16 0.00 0.00
3:53 pm 15:53 Sunny 32 0 9 -12.8 38 38 W 15 24 30.44 1031 10 16 0.00 0.00
4:53 pm 16:53 Sunny 30 -1.1 8 -13.3 39 39 WNW 14 22 30.47 1032 10 16 0.00 0.00
5:53 pm 17:53 Clear 28 -2.2 10 -12.2 47 47 WNW 13 20 30.48 1032 10 16 0.00 0.00
6:53 pm 18:53 Clear 27 -2.8 10 -12.2 49 49 VRB 3 6 30.50 1033 10 16 0.00 0.00
7:53 pm 19:53 Clear 26 -3.3 11 -11.7 53 53 VRB 3 6 30.52 1033 10 16 0.00 0.00
8:53 pm 20:53 Clear 26 -3.3 12 -11.1 55 55 W 3 6 30.53 1034 10 16 0.00 0.00
9:53 pm 21:53 Clear 25 -3.9 9 -12.8 50 50 VRB 5 7 30.54 1034 10 16 0.00 0.00
10:53 pm 22:53 Clear 24 -4.4 9 -12.8 52 52 WNW 9 15 30.58 1035 10 16 0.00 0.00
11:53 pm 23:53 Clear 22 -5.6 11 -11.7 63 63 NNW 9 15 30.60 1036 10 16 0.00 0.00

Powered by AerisWeather